Погода в Ильмене

Россия / Самарская область     52°54′08″N   48°44′53″E
темп.,
°C
ветер,
м/с
пор.,
м/с
влажн.,
%
обл.,
%
осадки,
мм/ч
давл.,
гПа
погр.,
м
14 апреля, ср
ср1401:00+10юв33695 0.0 103120
04:00+8вюв22755 0.0 103014
07:00+9вюв33933 0.0 103061
10:00+15вюв56746 0.0 1029560
13:00+18вюв67575 0.0 10271052
16:00+19вюв675315 0.0 10251341
19:00+17юв47600 0.0 1023151
22:00+13юв37810 0.0 1024111
15 апреля, чт
чт1501:00+11вюв33800 0.0 102233
04:00+9в22860 0.0 102216
07:00+9в22830 0.0 102132
10:00+15вюв235521 0.0 1020396
13:00+20юв343987 0.0 1019900
16:00+22юв34325 0.0 10181398
19:00+18юв33459 0.0 101740
22:00+14ююв3354100 0.0 101831
16 апреля, пт
пт1601:00+13в225366 0.0 101711
04:00+10всв2261100 0.0 101714
07:00+10св2364100 0.0 101848
10:00+15всв4549100 0.0 1018393
13:00+19всв453688 0.0 1018919
16:00+21всв4427100 0.0 10182332
19:00+18св3440100 0.0 101847
22:00+14св3353100 0.0 101926
17 апреля, сб
сб1701:00+11ссв346911 0.0 101950
04:00+9ссв488877 0.0 1020169
07:00+9ссв59875 0.0 1021296
10:00+13св67650 0.0 1022641
13:00+17св67513 0.0 10211134
16:00+17св77465 0.0 10211437
19:00+15св69470 0.0 1021399
22:00+11св512490 0.0 1022343
18 апреля, вс
вс1801:00+8св613530 0.0 1022366
04:00+6св411600 0.0 1022330
07:00+6св512620 0.0 1023452
10:00+11св79440 0.0 10231035
13:00+14св79370 0.0 10221560
16:00+14св89335 0.0 10221894
19:00+12св711445 0.0 1023823
22:00+9св91356100 0.0 1025696